| time (UTC) | temp F | wind direction | speed MPH | gust MPH | rain 1hr in | rain 24hr in | rain mn in | humidity % | barometer mb |
| 20260507064528 | 28 | 239 | 0.0 | 2.0 | 0.00 | 0.00 | 0.00 | 61 | 1011.1 |
| 20260507063024 | 29 | 239 | 0.0 | 0.0 | 0.00 | 0.00 | 0.00 | 62 | 1011.3 |
| 20260507061524 | 29 | 239 | 0.0 | 3.0 | 0.00 | 0.00 | 0.00 | 62 | 1011.4 |
| 20260507060028 | 28 | 302 | 0.0 | 0.0 | 0.00 | 0.00 | 0.00 | 62 | 1011.4 |
| 20260507054512 | 28 | 302 | 0.0 | 0.0 | 0.00 | 0.00 | 0.00 | 64 | 1011.5 |
| 20260507053020 | 28 | 302 | 0.0 | 2.0 | 0.00 | 0.00 | 0.00 | 66 | 1011.6 |
| 20260507051522 | 28 | 302 | 0.0 | 1.0 | 0.00 | 0.00 | 0.00 | 65 | 1011.8 |
| 20260507050038 | 29 | 302 | 0.0 | 0.0 | 0.00 | 0.00 | 0.00 | 63 | 1011.9 |
| 20260507044528 | 29 | 302 | 0.0 | 1.0 | 0.00 | 0.00 | 0.00 | 61 | 1012.1 |
| 20260507043016 | 30 | 302 | 0.0 | 1.0 | 0.00 | 0.00 | 0.00 | 61 | 1012.2 |
| 20260507041526 | 31 | 302 | 0.0 | 0.0 | 0.00 | 0.00 | 0.00 | 61 | 1012.2 |
| 20260507040026 | 32 | 302 | 0.0 | 0.0 | 0.00 | 0.00 | 0.00 | 59 | 1012.4 |
| 20260507034529 | 33 | 302 | 0.0 | 1.0 | 0.00 | 0.00 | 0.00 | 55 | 1012.5 |
| 20260507033028 | 34 | 302 | 0.0 | 0.0 | 0.00 | 0.00 | 0.00 | 53 | 1012.6 |
| 20260507031514 | 34 | 302 | 0.0 | 0.0 | 0.00 | 0.00 | 0.00 | 52 | 1012.6 |
| 20260507030026 | 35 | 302 | 0.0 | 0.0 | 0.00 | 0.00 | 0.00 | 50 | 1012.6 |
| 20260507024527 | 37 | 302 | 0.0 | 1.0 | 0.00 | 0.00 | 0.00 | 49 | 1012.6 |
| 20260507023027 | 37 | 302 | 0.0 | 2.0 | 0.00 | 0.00 | 0.00 | 49 | 1012.8 |
| 20260507021526 | 37 | 302 | 0.0 | 3.0 | 0.00 | 0.00 | 0.00 | 49 | 1012.8 |
| 20260507020019 | 37 | 302 | 0.0 | 2.0 | 0.00 | 0.00 | 0.00 | 48 | 1012.8 |
| 20260507014506 | 38 | 302 | 0.0 | 2.0 | 0.00 | 0.00 | 0.00 | 48 | 1012.7 |
| 20260507013010 | 38 | 326 | 1.0 | 2.0 | 0.00 | 0.00 | 0.00 | 48 | 1012.7 |
| 20260507011508 | 39 | 271 | 0.0 | 3.0 | 0.00 | 0.00 | 0.00 | 46 | 1012.8 |
| 20260507010015 | 39 | 269 | 1.0 | 5.0 | 0.00 | 0.00 | 0.00 | 44 | 1012.8 |
| 20260507004520 | 39 | 279 | 2.0 | 8.0 | 0.00 | 0.00 | 0.00 | 43 | 1012.8 |
| 20260507003003 | 40 | 290 | 1.0 | 10.0 | 0.00 | 0.00 | 0.00 | 43 | 1012.8 |
| 20260507001508 | 40 | 252 | 1.0 | 4.0 | 0.00 | 0.00 | 0.00 | 44 | 1012.9 |
| 20260507000008 | 40 | 301 | 1.0 | 4.0 | 0.00 | 0.00 | 0.00 | 44 | 1013.0 |
| 20260506234517 | 40 | 282 | 1.0 | 4.0 | 0.00 | 0.00 | 0.00 | 44 | 1013.1 |
| 20260506233017 | 40 | 324 | 2.0 | 6.0 | 0.00 | 0.00 | 0.00 | 44 | 1013.2 |
| 20260506231523 | 40 | 331 | 2.0 | 7.0 | 0.00 | 0.00 | 0.00 | 42 | 1013.3 |
| 20260506230017 | 40 | 289 | 2.0 | 6.0 | 0.00 | 0.00 | 0.00 | 41 | 1013.3 |
| 20260506224512 | 41 | 298 | 1.0 | 7.0 | 0.00 | 0.00 | 0.00 | 43 | 1013.4 |
| 20260506223014 | 40 | 311 | 1.0 | 5.0 | 0.00 | 0.00 | 0.00 | 43 | 1013.3 |
| 20260506221521 | 40 | 298 | 2.0 | 7.0 | 0.00 | 0.00 | 0.00 | 43 | 1013.5 |
| 20260506220034 | 40 | 301 | 3.0 | 9.0 | 0.00 | 0.00 | 0.00 | 41 | 1013.6 |
| 20260506214507 | 40 | 283 | 2.0 | 11.0 | 0.00 | 0.00 | 0.00 | 41 | 1013.6 |
| 20260506213010 | 41 | 316 | 3.0 | 8.0 | 0.00 | 0.00 | 0.00 | 43 | 1013.6 |
| 20260506211515 | 40 | 287 | 2.0 | 9.0 | 0.00 | 0.00 | 0.00 | 43 | 1013.8 |
| 20260506210028 | 40 | 281 | 3.0 | 11.0 | 0.00 | 0.00 | 0.00 | 42 | 1013.8 |
| 20260506204528 | 40 | 306 | 1.0 | 10.0 | 0.00 | 0.00 | 0.00 | 44 | 1013.8 |
| 20260506203007 | 39 | 314 | 2.0 | 10.0 | 0.00 | 0.00 | 0.00 | 45 | 1014.1 |
| 20260506201526 | 39 | 232 | 4.0 | 10.0 | 0.00 | 0.00 | 0.00 | 45 | 1014.1 |
| 20260506200017 | 39 | 311 | 2.0 | 14.0 | 0.00 | 0.00 | 0.00 | 46 | 1014.1 |
| 20260506194528 | 38 | 294 | 2.0 | 12.0 | 0.00 | 0.00 | 0.00 | 46 | 1014.2 |
| 20260506193026 | 39 | 294 | 4.0 | 14.0 | 0.00 | 0.00 | 0.00 | 43 | 1014.3 |
| 20260506191510 | 40 | 251 | 5.0 | 12.0 | 0.00 | 0.00 | 0.00 | 43 | 1014.3 |
| 20260506190025 | 40 | 274 | 4.0 | 12.0 | 0.00 | 0.00 | 0.00 | 46 | 1014.3 |
| 20260506184521 | 39 | 273 | 6.0 | 13.0 | 0.00 | 0.00 | 0.00 | 45 | 1014.3 |
| 20260506183022 | 39 | 269 | 5.0 | 11.0 | 0.00 | 0.00 | 0.00 | 47 | 1014.4 |
| 20260506181528 | 40 | 261 | 2.0 | 8.0 | 0.00 | 0.00 | 0.00 | 48 | 1014.4 |
| 20260506180021 | 39 | 278 | 5.0 | 10.0 | 0.00 | 0.00 | 0.00 | 49 | 1014.6 |
| 20260506174523 | 38 | 285 | 1.0 | 9.0 | 0.00 | 0.00 | 0.00 | 50 | 1014.8 |
| 20260506173026 | 38 | 283 | 2.0 | 12.0 | 0.00 | 0.00 | 0.00 | 53 | 1014.9 |
| 20260506171537 | 37 | 292 | 1.0 | 8.0 | 0.00 | 0.00 | 0.00 | 57 | 1015.1 |
| 20260506170010 | 37 | 289 | 5.0 | 9.0 | 0.00 | 0.00 | 0.00 | 57 | 1015.1 |
| 20260506164514 | 35 | 248 | 3.0 | 10.0 | 0.00 | 0.00 | 0.00 | 61 | 1015.3 |
| 20260506163018 | 35 | 311 | 4.0 | 12.0 | 0.00 | 0.00 | 0.00 | 62 | 1015.3 |
| 20260506161521 | 35 | 298 | 2.0 | 10.0 | 0.00 | 0.00 | 0.00 | 63 | 1015.4 |
| 20260506160006 | 34 | 210 | 3.0 | 9.0 | 0.00 | 0.00 | 0.00 | 62 | 1015.6 |
| 20260506154511 | 35 | 273 | 2.0 | 7.0 | 0.00 | 0.00 | 0.00 | 65 | 1015.5 |
| 20260506153016 | 33 | 307 | 3.0 | 10.0 | 0.00 | 0.00 | 0.00 | 64 | 1015.5 |
| 20260506151524 | 33 | 272 | 5.0 | 16.0 | 0.00 | 0.00 | 0.00 | 64 | 1015.5 |
| 20260506150028 | 33 | 296 | 2.0 | 8.0 | 0.00 | 0.00 | 0.00 | 64 | 1015.6 |
| 20260506144506 | 33 | 304 | 3.0 | 9.0 | 0.00 | 0.00 | 0.00 | 64 | 1015.6 |
| 20260506143011 | 32 | 292 | 3.0 | 9.0 | 0.00 | 0.00 | 0.00 | 63 | 1015.6 |
| 20260506141517 | 33 | 289 | 4.0 | 13.0 | 0.00 | 0.00 | 0.00 | 61 | 1015.5 |
| 20260506140027 | 33 | 335 | 4.0 | 13.0 | 0.00 | 0.00 | 0.00 | 60 | 1015.4 |
| 20260506134528 | 33 | 287 | 3.0 | 9.0 | 0.00 | 0.00 | 0.00 | 58 | 1015.5 |
| 20260506133010 | 33 | 304 | 3.0 | 10.0 | 0.00 | 0.00 | 0.00 | 57 | 1015.3 |
| 20260506131515 | 33 | 306 | 3.0 | 8.0 | 0.00 | 0.00 | 0.00 | 56 | 1015.3 |
| 20260506130019 | 32 | 15 | 3.0 | 9.0 | 0.00 | 0.00 | 0.00 | 56 | 1015.2 |
| 20260506124522 | 32 | 292 | 2.0 | 8.0 | 0.00 | 0.00 | 0.00 | 58 | 1015.0 |
| 20260506123024 | 32 | 241 | 2.0 | 8.0 | 0.00 | 0.00 | 0.00 | 58 | 1014.9 |
| 20260506121527 | 31 | 310 | 1.0 | 9.0 | 0.00 | 0.00 | 0.00 | 59 | 1014.7 |
| 20260506120014 | 31 | 249 | 1.0 | 4.0 | 0.00 | 0.00 | 0.00 | 59 | 1014.6 |
| 20260506114533 | 31 | 309 | 0.0 | 7.0 | 0.00 | 0.00 | 0.00 | 60 | 1014.4 |
| 20260506113022 | 30 | 277 | 1.0 | 3.0 | 0.00 | 0.00 | 0.00 | 60 | 1014.3 |
| 20260506111523 | 30 | 300 | 1.0 | 5.0 | 0.00 | 0.00 | 0.00 | 59 | 1014.3 |
| 20260506110032 | 30 | 306 | 2.0 | 8.0 | 0.00 | 0.00 | 0.00 | 58 | 1014.1 |
| 20260506104514 | 30 | 304 | 1.0 | 5.0 | 0.00 | 0.00 | 0.00 | 58 | 1014.1 |
| 20260506103022 | 30 | 303 | 1.0 | 4.0 | 0.00 | 0.00 | 0.00 | 58 | 1013.9 |
| 20260506101524 | 30 | 312 | 2.0 | 4.0 | 0.00 | 0.00 | 0.00 | 58 | 1014.1 |
| 20260506100028 | 30 | 294 | 1.0 | 8.0 | 0.00 | 0.00 | 0.00 | 57 | 1013.8 |
| 20260506094526 | 31 | 290 | 1.0 | 5.0 | 0.00 | 0.00 | 0.00 | 58 | 1013.8 |
| 20260506093015 | 31 | 290 | 0.0 | 2.0 | 0.00 | 0.00 | 0.00 | 57 | 1013.8 |
| 20260506091523 | 31 | 290 | 1.0 | 9.0 | 0.00 | 0.00 | 0.00 | 56 | 1014.0 |
| 20260506090025 | 31 | 318 | 1.0 | 4.0 | 0.00 | 0.00 | 0.00 | 56 | 1013.9 |
| 20260506084526 | 31 | 304 | 0.0 | 4.0 | 0.00 | 0.00 | 0.00 | 56 | 1013.8 |
| 20260506083027 | 31 | 309 | 0.0 | 5.0 | 0.00 | 0.00 | 0.00 | 56 | 1013.8 |
| 20260506081518 | 31 | 295 | 0.0 | 4.0 | 0.00 | 0.00 | 0.00 | 54 | 1013.8 |
| 20260506073027 | 31 | 300 | 0.0 | 3.0 | 0.00 | 0.00 | 0.00 | 54 | 1013.8 |
| 20260506071526 | 31 | 296 | 0.0 | 3.0 | 0.00 | 0.00 | 0.00 | 54 | 1013.8 |